Weather in Uren

Russia / Nizhny Novgorod Oblast'     57°27′46″N   45°47′58″E
temp.,
°C
wind,
m/s
gust,
m/s
humid.,
%
clouds,
%
prec.,
mm/h
press.,
hPa
HPBL,
m
19 may, wed
wed1900:00+17ese5148574 0.4 1016349
03:00+15ese4128657 0.4 1016255
06:00+17ese413779 0.0 1016415
09:00+22se595899 0.0 1016628
12:00+25se68465 0.0 10161263
15:00+26ese68440 0.0 10151318
18:00+23ese510545 0.0 1015646
21:00+17ese310760 0.0 1016221
20 may, thu
thu2000:00+16ese413780 0.0 1015327
03:00+15se414840 0.0 1015346
06:00+17se413765 0.0 1015424
09:00+23se59555 0.0 1014899
12:00+25se7104232 0.0 10132129
15:00+26se69410 0.0 10112389
18:00+23se5105296 0.0 1010941
21:00+17se411705 0.0 1010389
21 may, fri
fri2100:00+15se4117558 0.0 1009297
03:00+14se41082100 0.1 1008416
06:00+14s4996100 3.8 1007462
09:00+16s5987100 6.2 1008801
12:00+18ssw5876100 0.5 10091154
15:00+18ssw587445 1.9 10091338
18:00+15sw598341 1.3 1010835
21:00+12sw410935 1.4 1012415
22 may, sat
sat2200:00+12w4109395 0.0 1014559
03:00+9wsw3897100 0.0 1016183
06:00+12wsw378429 0.0 1018265
09:00+17w355371 0.0 10181161
12:00+19wsw4641100 0.0 10192254
15:00+20sw4543100 0.0 10182185
18:00+17wsw2559100 0.0 1018232
21:00+12wsw1170100 0.0 101910
23 may, sun
sun2300:00+10s22860 0.0 102024
03:00+9s22920 0.0 102016
06:00+13se227878 0.0 1020142
09:00+17se3561100 0.0 1019938
12:00+20se4560100 0.0 10171289
15:00+19se5768100 0.0 10161096
18:00+17ese4993100 1.1 1013366
21:00+16ese61594100 1.6 1010573